Theta_e
305 306 306 304 302 301 301 302 302 302 302 302 304 304 304 304 302 300 299 298 296 295 295 294 295 294 293 293 293 292 292 291 291 291 290 289 289 288 288 288 288 288 288
297 301 303 303 303 301 300 301 302 303 302 302 301 302 303 303 302 301 299 299 298 296 295 293 294 293 293 292 292 292 291 291 290 289 289 289 289 289 290 290 288 288 288
295 296 300 301 301 302 300 299 300 301 301 300 302 302 300 301 302 302 300 299 298 297 296 295 294 293 293 293 292 291 291 290 288 288 289 289 290 291 290 289 288 288 288
295 293 294 298 298 299 300 300 298 299 301 300 300 301 302 301 301 301 300 299 298 297 296 294 295 294 293 292 292 291 290 289 288 287 287 288 289 288 287 287 287 286 286
293 294 295 294 296 297 297 299 299 298 297 298 299 300 300 299 300 299 300 299 298 298 296 295 295 294 292 291 291 291 290 289 288 287 287 287 288 286 286 285 284 284 285
292 292 292 294 292 295 297 295 298 297 295 295 297 298 299 300 299 298 298 299 299 297 297 296 294 294 293 290 289 289 289 289 288 287 286 288 286 285 284 284 283 283 283
287 289 291 291 292 291 294 297 295 296 294 293 294 295 297 298 298 298 296 295 296 297 297 296 295 294 292 290 288 288 288 287 286 286 287 287 285 284 284 283 283 282 282
285 285 285 286 288 290 290 293 297 295 294 292 292 292 293 296 296 296 297 296 294 294 295 296 295 294 291 290 288 287 287 286 286 286 288 285 285 284 283 283 282 281 281
284 284 284 284 285 287 288 289 293 296 294 292 291 291 292 293 293 292 293 294 294 295 294 294 293 293 291 289 287 287 286 285 285 286 285 284 284 283 283 282 280 280 279
283 283 284 284 284 284 285 286 289 293 294 294 292 290 291 291 290 290 290 292 295 296 293 292 291 292 290 288 287 287 286 285 285 285 282 282 282 282 281 280 280 279 278
282 283 283 283 283 283 283 284 285 289 292 293 295 293 292 289 288 289 288 289 292 292 291 292 290 289 288 287 287 286 285 285 285 283 282 282 281 281 280 279 278 278 278
281 282 282 283 283 283 282 282 284 285 289 291 292 294 294 291 290 289 286 287 289 289 292 291 289 289 287 286 285 284 283 283 282 282 281 280 280 279 279 278 278 278 278
276 277 279 280 281 282 282 282 282 283 286 289 289 291 291 290 287 288 288 287 287 287 287 286 288 287 286 284 283 283 282 281 282 281 280 279 279 278 278 278 278 278 278
273 273 274 277 279 280 281 280 279 281 283 286 288 289 291 291 290 287 286 286 286 284 284 283 284 284 284 283 281 281 280 281 281 280 279 278 278 278 277 278 278 278 279
270 270 269 270 273 275 278 277 277 279 280 282 285 288 288 290 291 289 285 286 285 284 283 282 282 282 282 281 281 281 281 281 280 279 278 278 277 277 277 277 277 277 277
266 266 266 266 268 269 272 276 276 278 280 281 281 283 287 287 288 288 287 285 285 283 284 283 281 281 280 280 280 280 280 280 279 277 276 276 276 276 276 276 276 276 276
263 263 263 264 265 265 267 268 273 277 278 280 281 283 283 283 285 285 287 285 284 282 283 284 282 280 280 280 281 280 281 281 278 275 276 275 275 275 276 275 275 275 275
262 262 262 263 263 264 266 267 269 271 275 278 279 281 283 283 283 282 284 284 283 281 282 283 282 280 280 281 280 279 280 278 275 275 275 275 275 275 274 274 274 274 274
262 262 263 263 263 264 265 266 268 270 273 276 278 280 282 283 283 282 282 283 283 281 280 281 282 282 280 280 280 280 279 276 275 275 274 274 274 273 274 273 273 273 272
264 264 264 264 264 264 266 266 267 269 272 275 277 278 280 281 283 281 281 282 284 281 279 279 281 281 280 279 279 278 275 274 274 274 274 273 273 273 273 272 272 272 271
265 265 265 265 265 265 266 266 267 269 273 276 277 278 279 280 282 281 280 281 283 282 279 278 279 280 279 279 278 275 274 273 273 273 273 273 273 273 272 272 272 271 271
266 267 267 267 267 267 267 267 269 271 273 275 276 277 278 280 280 280 280 280 281 281 281 280 279 279 278 277 276 274 273 273 272 272 272 272 272 272 272 271 271 270 270
268 269 269 269 269 269 269 269 271 273 274 275 276 276 277 280 279 279 279 280 280 280 280 279 278 276 275 274 273 273 273 272 272 272 272 272 272 272 271 271 270 270 269
269 270 271 271 271 271 272 272 273 274 274 275 275 276 277 278 279 279 279 279 279 278 278 277 275 275 274 273 272 272 272 272 271 271 271 271 271 271 271 270 270 270 269
269 270 270 271 271 272 272 273 273 274 274 275 275 276 277 278 278 278 277 277 277 277 275 274 274 273 272 272 272 272 271 271 271 271 271 271 271 270 270 270 269 269 269
268 269 269 270 271 271 271 272 273 273 274 274 275 275 275 275 276 275 275 275 275 275 274 272 271 272 272 272 271 271 271 271 270 270 270 270 270 270 270 269 269 269 269
Wind_Speed
31 30 28 25 25 29 33 36 37 37 40 44 45 46 49 53 55 56 56 54 52 51 49 46 44 42 40 38 34 32 30 28 25 24 20 17 15 14 16 19 21 24 23
32 31 31 29 26 26 33 34 34 35 38 41 44 47 48 49 53 57 59 57 54 56 53 50 47 44 43 40 37 35 32 29 27 24 21 18 17 17 19 22 22 24 24
33 34 33 34 32 29 28 32 35 33 37 42 43 45 50 50 51 53 58 59 57 57 56 52 49 47 47 44 42 38 34 32 28 25 23 21 21 21 21 23 23 24 23
36 37 37 37 39 37 33 29 31 33 35 40 43 45 48 51 51 52 54 57 58 59 58 55 51 49 50 47 43 38 35 33 30 27 24 23 21 20 20 22 22 23 20
41 41 39 40 40 42 39 34 31 31 35 40 41 43 46 51 54 55 54 56 60 60 60 57 54 49 49 47 44 41 38 35 34 30 27 25 22 20 19 19 19 20 19
37 39 43 42 42 40 42 40 35 32 32 36 40 41 46 50 54 55 55 56 58 60 60 57 56 53 50 48 45 40 39 38 36 33 29 27 22 19 18 17 17 18 17
34 36 38 41 45 46 42 41 39 33 31 33 36 40 44 46 49 52 53 55 58 60 59 59 59 56 52 51 48 44 41 39 37 33 30 25 21 18 17 16 18 18 19
39 39 41 43 42 44 46 43 40 38 32 30 33 37 41 44 47 50 47 49 54 57 58 59 59 57 53 53 50 46 43 41 38 36 29 25 21 18 18 18 16 18 20
43 43 44 46 47 43 44 44 42 39 36 30 29 33 36 40 45 47 47 46 48 52 55 57 57 56 53 54 49 45 43 41 36 33 27 24 21 20 19 16 14 17 21
44 47 49 48 47 47 44 43 42 40 38 33 29 29 32 36 39 41 44 46 46 51 57 56 57 56 50 51 50 47 45 40 36 32 29 27 23 17 15 16 15 16 18
47 48 50 51 52 51 49 45 42 38 40 37 32 30 30 34 36 33 36 44 49 53 56 58 55 50 47 48 47 46 42 38 35 31 29 26 21 18 17 15 15 16 17
51 54 53 52 55 55 54 50 44 38 36 41 36 30 29 31 34 33 34 42 46 50 48 53 54 49 48 47 47 41 38 36 34 34 30 25 22 19 16 15 15 16 17
57 57 58 56 53 56 56 52 47 41 38 38 40 35 33 29 28 29 32 38 48 45 45 49 46 46 47 46 43 38 39 40 36 33 28 24 21 17 16 15 14 16 17
61 62 61 59 57 52 54 52 43 42 39 37 40 38 34 33 27 25 29 36 44 39 39 40 41 43 44 41 37 31 35 36 33 29 26 24 20 18 16 15 15 17 19
60 59 56 55 55 52 50 50 41 39 38 36 38 36 37 36 28 22 29 40 46 44 34 36 37 40 40 41 43 42 39 36 31 29 27 25 22 19 16 14 14 16 19
55 53 48 45 46 46 47 52 43 35 33 35 34 35 35 33 27 19 22 40 43 43 37 37 39 40 44 47 47 44 38 32 30 29 27 23 19 17 13 11 12 15 19
45 47 44 42 41 38 38 36 42 37 25 31 31 34 34 31 23 22 17 36 36 40 40 40 43 47 50 48 44 44 41 36 31 30 26 22 18 15 12 10 12 16 19
43 43 43 42 40 39 38 35 31 31 30 29 29 27 32 27 27 21 18 33 36 38 45 46 46 49 50 47 44 42 37 32 32 28 24 20 17 13 11 11 13 17 21
42 42 41 40 39 38 36 35 35 36 35 30 30 23 22 24 28 24 23 39 43 43 47 46 44 43 45 44 43 39 33 31 29 25 21 18 15 11 10 11 14 17 22
39 38 37 37 37 35 33 33 31 30 25 25 28 25 19 19 30 29 27 38 36 43 47 45 38 38 42 42 39 36 32 30 26 22 19 15 12 11 11 12 15 19 22
40 39 37 37 36 34 33 32 29 26 21 26 25 22 18 20 32 34 27 33 36 38 44 42 34 35 34 35 35 31 28 26 23 18 15 12 11 10 10 14 16 20 24
35 36 36 35 33 31 29 26 24 19 20 23 22 19 15 21 30 32 31 36 35 33 31 34 32 29 31 33 30 26 24 20 18 15 12 10 10 9 11 15 18 21 24
28 29 29 28 25 23 20 17 15 15 19 18 15 13 13 24 29 27 29 30 29 31 30 27 26 29 30 27 23 21 19 17 15 13 12 10 10 10 13 16 19 22 25
24 22 18 13 11 11 10 9 10 12 11 10 11 14 16 20 23 23 26 27 24 23 22 24 26 28 25 22 22 19 17 14 12 11 10 10 10 11 14 17 20 23 26
21 19 16 13 10 7 6 5 5 5 6 9 11 13 16 17 21 20 23 23 23 23 24 26 24 22 21 20 17 15 13 12 11 10 10 11 11 12 15 18 21 25 28
19 18 17 15 13 11 8 5 4 5 7 8 9 10 11 15 20 22 25 26 24 24 24 23 21 18 16 15 14 13 11 10 9 10 10 11 13 15 18 19 22 26 29
Wind_Direction
338 332 322 316 307 296 287 280 270 267 260 255 248 242 239 236 234 231 231 230 231 232 231 228 230 230 232 232 231 232 233 232 232 238 245 254 267 279 292 300 304 307 311
344 337 331 322 308 299 290 284 280 275 263 255 250 248 242 237 234 233 232 231 230 232 231 229 228 228 229 231 232 233 234 234 233 235 241 250 259 271 282 288 296 305 309
348 346 343 336 327 306 294 290 283 276 269 258 250 247 247 243 238 235 234 234 231 232 233 230 230 230 230 229 230 231 232 234 234 236 241 241 251 265 275 286 296 299 306
346 349 347 346 342 328 307 289 283 277 269 264 257 251 248 246 244 239 235 235 234 234 235 233 232 232 234 231 230 230 231 233 234 235 238 243 253 265 275 283 292 299 309
338 338 341 344 339 340 329 305 290 281 272 265 261 256 253 249 246 240 236 234 234 233 233 233 234 232 235 236 232 229 229 231 233 234 234 239 249 258 271 282 291 298 308
334 336 335 336 335 333 337 332 304 289 282 271 262 255 252 252 249 244 240 237 237 235 233 233 234 232 230 233 231 229 233 232 232 233 232 238 244 253 264 276 287 294 310
333 329 328 328 326 329 328 330 332 302 288 281 270 261 253 250 249 248 244 242 239 237 235 232 232 231 227 228 229 228 229 229 230 234 236 241 240 251 260 270 279 290 298
336 333 331 327 323 321 322 322 324 323 294 285 280 270 261 256 253 250 245 243 241 243 240 237 234 231 227 226 225 226 226 227 227 230 233 236 241 250 259 266 277 290 299
329 330 329 327 323 319 317 315 315 316 314 288 280 275 268 261 257 252 245 238 237 240 243 242 238 232 226 227 224 225 226 226 225 230 230 236 243 244 254 268 276 285 296
321 321 323 323 321 318 314 311 307 305 308 304 287 277 273 267 259 253 246 239 236 237 237 238 237 234 225 224 225 224 224 223 221 224 227 229 233 237 244 257 270 281 293
313 313 315 316 315 315 312 309 305 300 300 299 295 285 276 271 264 254 246 242 242 234 232 233 232 229 221 223 226 226 225 222 220 222 225 228 229 233 238 252 266 277 289
305 305 306 307 307 308 308 306 304 298 291 292 291 288 280 270 266 255 234 230 241 241 241 236 230 223 216 219 224 222 220 220 218 221 223 222 225 227 236 248 263 277 289
303 301 300 301 300 300 302 303 301 295 286 283 284 284 284 281 266 256 239 223 233 237 239 235 229 219 216 215 220 217 216 216 215 217 217 222 226 232 239 246 260 276 285
298 298 298 297 296 294 294 296 294 289 284 279 278 279 283 281 278 254 238 214 223 223 228 227 224 214 211 210 204 204 210 213 216 216 215 218 225 231 240 252 263 275 290
295 295 294 294 294 292 287 287 285 281 280 276 272 274 273 271 276 272 228 212 214 222 221 216 210 205 204 204 199 202 210 213 212 217 219 220 221 227 235 252 274 295 308
292 292 291 291 290 289 285 284 281 274 266 268 261 261 267 269 271 263 244 211 216 216 219 210 203 192 196 200 200 201 208 204 208 216 221 223 224 229 238 256 282 303 313
291 292 291 289 288 284 282 281 284 279 265 259 256 256 252 265 267 262 232 210 219 211 213 218 209 202 204 206 209 209 209 208 207 213 217 221 228 239 251 274 295 311 319
293 291 289 286 285 284 282 281 277 274 281 268 265 253 248 244 257 247 228 203 202 205 216 215 213 208 210 209 209 211 208 204 207 210 215 222 231 241 260 285 309 322 324
299 294 292 288 285 283 280 275 273 272 265 264 269 268 241 241 233 234 219 203 203 198 206 210 215 218 215 210 208 207 204 205 209 210 215 223 235 253 276 299 317 327 328
306 302 299 293 290 287 286 281 278 276 273 258 261 269 261 236 220 221 213 212 206 204 206 211 210 218 216 209 205 198 195 203 207 209 213 224 240 262 282 304 321 329 330
308 305 302 295 287 285 283 280 279 276 268 258 267 272 261 233 218 220 218 211 212 212 205 206 208 221 213 204 195 192 198 203 205 209 217 228 246 265 287 307 322 329 331
314 310 305 296 293 288 284 283 280 269 262 263 269 267 241 224 222 216 214 214 213 213 215 216 214 214 202 193 187 190 198 201 208 215 223 237 253 273 293 311 325 329 328
323 323 317 302 296 293 288 281 275 270 266 272 269 259 226 213 205 209 211 209 205 206 209 208 205 191 183 176 181 189 194 202 211 220 231 242 262 282 302 315 322 325 325
343 344 342 341 326 315 310 304 290 280 272 260 240 226 222 202 201 205 200 194 188 188 196 187 182 177 171 173 180 183 193 201 212 225 238 251 271 287 301 310 318 322 320
3 6 6 5 356 337 309 291 272 251 235 224 209 202 196 190 191 189 179 174 174 172 168 166 162 163 171 174 178 187 198 205 220 238 256 267 280 288 299 309 315 317 318
23 27 32 35 37 38 41 57 103 145 166 172 172 170 170 169 163 158 159 157 155 157 154 154 161 165 171 179 186 194 204 216 233 250 266 272 274 284 296 307 310 313 317